Torrington, WY

9:39 AM MST on February 24, 2018 (GMT -0700)
Torrington Municipal

Weather History for KTOR - February, 2012

Change the Weather History Date:

Sunday, February 12, 2012

  Actual Average Record
Temperature  
Mean Temperature 17 °F 30 °F  
Max Temperature 25 °F 44 °F 62 °F (2015)
Min Temperature 9 °F 17 °F -4 °F (2004)
Degree Days  
Heating Degree Days 48 35  
Month to date heating degree days 468 424  
Since 1 July heating degree days 4173 4319  
Cooling Degree Days 0 0  
Month to date cooling degree days 0 0  
Year to date cooling degree days 0 0  
Moisture  
Dew Point 11 °F    
Average Humidity 80    
Maximum Humidity 91    
Minimum Humidity 68    
Precipitation  
Precipitation 0.00 in 0.02 in 0.07 in (2007)
Month to date precipitation 0.11 0.14  
Year to date precipitation 0.36 0.40  
Sea Level Pressure  
Sea Level Pressure 30.01 in    
Wind  
Wind Speed 7 mph (SE)    
Max Wind Speed 17 mph    
Max Gust Speed 21 mph    
Visibility 10 miles    
Events      
T = Trace of Precipitation, MM = Missing Value Source: NWS Daily Summary

Daily Weather History Graph

Daily Weather History Graph

Search for Another Location

Airport or City:

Trip Planner

Search our weather history database for the weather conditions in past years. The results will help you decide how hot, cold, wet, or windy it might be!

Date:

Astronomy

Feb. 12, 2012 Rise Set
Actual Time 6:57 AM MST 5:25 PM MST
Civil Twilight 6:28 AM MST 5:53 PM MST
Nautical Twilight 5:55 AM MST 6:26 PM MST
Astronomical Twilight 5:23 AM MST 6:59 PM MST
Moon 11:33 PM MST (2/12) 9:10 AM MST (2/12)
Length of Visible Light 11h 25m
Length of Day
10h 27m
Waning Gibbous, 71% of the Moon is Illuminated
Feb 12
Waning Gibbous
Feb 14
Last Quarter
Feb 21
New
Feb 29
First Quarter
Mar 8
Full

Hourly Weather History & Observations

Time (MST) Temp. Windchill Dew Point Humidity Pressure Visibility Wind Dir Wind Speed Gust Speed Precip Events Conditions
12:53 AM 9.0 °F -6.6 °F 6.1 °F 88% 30.27 in 10.0 mi East 12.7 mph - N/A   Partly Cloudy
1:53 AM 10.0 °F -5.9 °F 7.0 °F 87% 30.25 in 10.0 mi ESE 13.8 mph - N/A   Clear
2:53 AM 10.0 °F -4.5 °F 7.0 °F 87% 30.22 in 10.0 mi ESE 11.5 mph - N/A   Clear
3:53 AM 10.0 °F -5.9 °F 7.0 °F 87% 30.19 in 10.0 mi East 13.8 mph - N/A   Clear
4:53 AM 10.9 °F -5.9 °F 7.0 °F 84% 30.17 in 10.0 mi ESE 16.1 mph - N/A   Clear
5:53 AM 10.0 °F -3.7 °F 7.0 °F 87% 30.15 in 10.0 mi ESE 10.4 mph - N/A   Clear
6:53 AM 9.0 °F -5.1 °F 6.1 °F 88% 30.14 in 10.0 mi ESE 10.4 mph - N/A   Clear
7:53 AM 10.9 °F -2.6 °F 7.0 °F 84% 30.13 in 10.0 mi ESE 10.4 mph - N/A   Clear
8:53 AM 15.1 °F 3.3 °F 10.0 °F 80% 30.11 in 10.0 mi SE 9.2 mph - N/A   Overcast
9:53 AM 18.0 °F 6.9 °F 12.0 °F 78% 30.07 in 10.0 mi SE 9.2 mph - N/A   Overcast
10:53 AM 19.9 °F 8.6 °F 14.0 °F 78% 30.04 in 10.0 mi SSE 10.4 mph - N/A   Mostly Cloudy
11:53 AM 21.0 °F 10.6 °F 15.1 °F 78% 30.00 in 10.0 mi SSE 9.2 mph - N/A   Clear
12:53 PM 21.9 °F 14.5 °F 15.1 °F 75% 29.96 in 10.0 mi South 5.8 mph - N/A   Clear
1:53 PM 23.0 °F 17.0 °F 16.0 °F 74% 29.91 in 10.0 mi SSE 4.6 mph - N/A   Mostly Cloudy
2:53 PM 24.1 °F 19.7 °F 16.0 °F 71% 29.91 in 10.0 mi South 3.5 mph - N/A   Mostly Cloudy
3:53 PM 25.0 °F 20.7 °F 17.1 °F 72% 29.88 in 10.0 mi South 3.5 mph - N/A   Overcast
4:53 PM 24.1 °F - 16.0 °F 71% 29.87 in 10.0 mi Calm Calm - N/A   Clear
5:53 PM 19.9 °F 13.4 °F 14.0 °F 78% 29.89 in 10.0 mi NNW 4.6 mph - N/A   Clear
6:53 PM 17.1 °F 11.7 °F 12.0 °F 81% 29.90 in 10.0 mi Variable 3.5 mph - N/A   Clear
7:53 PM 16.0 °F - 12.0 °F 84% 29.89 in 10.0 mi Calm Calm - N/A   Mostly Cloudy
8:53 PM 15.1 °F - 10.9 °F 84% 29.87 in 9.0 mi Calm Calm - N/A   Clear
9:53 PM 14.0 °F - 10.9 °F 88% 29.85 in 9.0 mi Calm Calm - N/A   Scattered Clouds
10:53 PM 15.1 °F 7.7 °F 12.0 °F 88% 29.82 in 8.0 mi WNW 4.6 mph - N/A   Overcast
11:53 PM 14.0 °F 5.1 °F 10.9 °F 88% 29.81 in 7.0 mi WNW 5.8 mph - N/A   Overcast